| time (UTC) | temp F | wind direction | speed knots | gust knots | rain 1hr in | rain 24hr in | rain mn in | humidity % | barometer mb |
| 20260507154005 | 52 | 315 | 5.2 | 13.0 | 0.00 | 0.00 | 0.00 | 49 | 1016.8 |
| 20260507153007 | 51 | 270 | 7.0 | 13.9 | 0.00 | 0.00 | 0.00 | 49 | 1016.8 |
| 20260507152503 | 51 | 292 | 7.8 | 13.0 | 0.00 | 0.00 | 0.00 | 49 | 1016.8 |
| 20260507152006 | 51 | 292 | 5.2 | 13.0 | 0.00 | 0.00 | 0.00 | 49 | 1016.8 |
| 20260507151507 | 50 | 270 | 6.1 | 12.2 | 0.00 | 0.00 | 0.00 | 49 | 1016.5 |
| 20260507151004 | 50 | 337 | 6.1 | 12.2 | 0.00 | 0.00 | 0.00 | 50 | 1016.8 |
| 20260507150507 | 50 | 315 | 6.1 | 11.3 | 0.00 | 0.00 | 0.00 | 51 | 1016.5 |
| 20260507150004 | 49 | 270 | 6.1 | 16.5 | 0.00 | 0.00 | 0.00 | 51 | 1016.5 |
| 20260507145506 | 49 | 292 | 7.8 | 16.5 | 0.00 | 0.00 | 0.00 | 50 | 1016.5 |
| 20260507145003 | 50 | 315 | 7.8 | 16.5 | 0.00 | 0.00 | 0.00 | 51 | 1016.8 |
| 20260507144506 | 49 | 292 | 4.3 | 15.6 | 0.00 | 0.00 | 0.00 | 52 | 1016.5 |
| 20260507142507 | 48 | 315 | 8.7 | 13.9 | 0.00 | 0.00 | 0.00 | 52 | 1016.5 |
| 20260507142004 | 48 | 247 | 8.7 | 13.0 | 0.00 | 0.00 | 0.00 | 53 | 1016.8 |
| 20260507141507 | 48 | 292 | 7.0 | 14.8 | 0.00 | 0.00 | 0.00 | 53 | 1016.8 |
| 20260507140505 | 48 | 292 | 8.7 | 14.8 | 0.00 | 0.00 | 0.00 | 54 | 1016.5 |
| 20260507140002 | 48 | 315 | 4.3 | 13.0 | 0.00 | 0.00 | 0.00 | 56 | 1016.8 |
| 20260507135505 | 48 | 292 | 3.5 | 9.6 | 0.00 | 0.00 | 0.00 | 57 | 1016.8 |
| 20260507135002 | 47 | 292 | 4.3 | 8.7 | 0.00 | 0.00 | 0.00 | 58 | 1016.8 |
| 20260507133507 | 47 | 292 | 3.5 | 9.6 | 0.00 | 0.00 | 0.00 | 58 | 1016.8 |
| 20260507133004 | 47 | 292 | 5.2 | 9.6 | 0.00 | 0.00 | 0.00 | 59 | 1016.8 |
| 20260507132507 | 47 | 270 | 2.6 | 8.7 | 0.00 | 0.00 | 0.00 | 59 | 1016.8 |
| 20260507132003 | 47 | 270 | 3.5 | 8.7 | 0.00 | 0.00 | 0.00 | 59 | 1016.8 |
| 20260507131506 | 47 | 270 | 3.5 | 7.8 | 0.00 | 0.00 | 0.00 | 59 | 1016.8 |
| 20260507131001 | 47 | 292 | 3.5 | 7.8 | 0.00 | 0.00 | 0.00 | 59 | 1016.8 |
| 20260507130004 | 47 | 270 | 4.3 | 7.0 | 0.00 | 0.00 | 0.00 | 63 | 1016.8 |
| 20260507125506 | 47 | 292 | 0.9 | 6.1 | 0.00 | 0.00 | 0.00 | 64 | 1016.8 |
| 20260507124505 | 46 | 292 | 3.5 | 7.8 | 0.00 | 0.00 | 0.00 | 65 | 1016.8 |
| 20260507124007 | 46 | 292 | 2.6 | 7.8 | 0.00 | 0.00 | 0.00 | 66 | 1016.8 |
| 20260507123504 | 45 | 315 | 3.5 | 7.0 | 0.00 | 0.00 | 0.00 | 67 | 1016.8 |
| 20260507123007 | 45 | 337 | 3.5 | 7.0 | 0.00 | 0.00 | 0.00 | 68 | 1016.5 |
| 20260507122503 | 45 | 292 | 3.5 | 7.0 | 0.00 | 0.00 | 0.00 | 70 | 1016.5 |
| 20260507121507 | 44 | 292 | 2.6 | 7.0 | 0.00 | 0.00 | 0.00 | 73 | 1016.5 |
| 20260507121003 | 44 | 270 | 4.3 | 7.0 | 0.00 | 0.00 | 0.00 | 74 | 1016.5 |
| 20260507120513 | 43 | 292 | 1.7 | 5.2 | 0.00 | 0.00 | 0.00 | 75 | 1016.5 |
| 20260507120009 | 43 | 270 | 3.5 | 6.1 | 0.00 | 0.00 | 0.00 | 75 | 1016.8 |
| 20260507115005 | 42 | 270 | 4.3 | 6.1 | 0.00 | 0.00 | 0.00 | 76 | 1016.8 |
| 20260507114502 | 42 | 247 | 4.3 | 6.1 | 0.00 | 0.00 | 0.00 | 77 | 1016.5 |
| 20260507114005 | 42 | 270 | 3.5 | 6.1 | 0.00 | 0.00 | 0.00 | 78 | 1016.8 |
| 20260507113507 | 41 | 270 | 2.6 | 5.2 | 0.00 | 0.00 | 0.00 | 78 | 1016.5 |
| 20260507113004 | 41 | 270 | 3.5 | 5.2 | 0.00 | 0.00 | 0.00 | 79 | 1016.8 |
| 20260507112507 | 41 | 247 | 2.6 | 4.3 | 0.00 | 0.00 | 0.00 | 79 | 1016.8 |
| 20260507111506 | 41 | 270 | 2.6 | 5.2 | 0.00 | 0.00 | 0.00 | 79 | 1016.5 |
| 20260507111007 | 40 | 270 | 3.5 | 5.2 | 0.00 | 0.00 | 0.00 | 79 | 1016.5 |
| 20260507110504 | 40 | 270 | 3.5 | 5.2 | 0.00 | 0.00 | 0.00 | 79 | 1016.5 |
| 20260507110006 | 40 | 270 | 2.6 | 3.5 | 0.00 | 0.00 | 0.00 | 79 | 1016.5 |
| 20260507105003 | 40 | 270 | 2.6 | 3.5 | 0.00 | 0.00 | 0.00 | 79 | 1016.1 |
| 20260507104505 | 40 | 270 | 2.6 | 5.2 | 0.00 | 0.00 | 0.00 | 79 | 1016.1 |
| 20260507104006 | 40 | 270 | 2.6 | 5.2 | 0.00 | 0.00 | 0.00 | 79 | 1016.1 |
| 20260507103502 | 40 | 270 | 2.6 | 5.2 | 0.00 | 0.00 | 0.00 | 79 | 1016.1 |
| 20260507103005 | 40 | 247 | 2.6 | 5.2 | 0.00 | 0.00 | 0.00 | 79 | 1016.1 |
| 20260507102501 | 40 | 270 | 3.5 | 5.2 | 0.00 | 0.00 | 0.00 | 80 | 1015.8 |
| 20260507102006 | 40 | 270 | 2.6 | 5.2 | 0.00 | 0.00 | 0.00 | 80 | 1015.8 |
| 20260507101507 | 40 | 270 | 3.5 | 4.3 | 0.00 | 0.00 | 0.00 | 80 | 1015.8 |
| 20260507101002 | 41 | 270 | 1.7 | 3.5 | 0.00 | 0.00 | 0.00 | 80 | 1016.1 |
| 20260507100505 | 41 | 270 | 2.6 | 3.5 | 0.00 | 0.00 | 0.00 | 80 | 1016.1 |
| 20260507100002 | 41 | 270 | 2.6 | 5.2 | 0.00 | 0.00 | 0.00 | 80 | 1015.8 |
| 20260507095005 | 41 | 270 | 2.6 | 4.3 | 0.00 | 0.00 | 0.00 | 81 | 1015.8 |
| 20260507094003 | 41 | 270 | 2.6 | 6.1 | 0.00 | 0.00 | 0.00 | 81 | 1015.8 |
| 20260507093505 | 41 | 270 | 2.6 | 6.1 | 0.00 | 0.00 | 0.00 | 81 | 1016.1 |
| 20260507093001 | 41 | 270 | 2.6 | 7.8 | 0.00 | 0.00 | 0.00 | 81 | 1016.1 |
| 20260507092504 | 41 | 270 | 4.3 | 7.8 | 0.00 | 0.00 | 0.00 | 81 | 1016.1 |
| 20260507091501 | 42 | 270 | 3.5 | 4.3 | 0.00 | 0.00 | 0.00 | 82 | 1016.1 |
| 20260507091004 | 41 | 270 | 2.6 | 4.3 | 0.00 | 0.00 | 0.00 | 82 | 1015.8 |
| 20260507090002 | 42 | 292 | 3.5 | 4.3 | 0.00 | 0.00 | 0.00 | 82 | 1015.8 |
| 20260507085504 | 42 | 270 | 1.7 | 4.3 | 0.00 | 0.00 | 0.00 | 82 | 1016.1 |
| 20260507084507 | 42 | 270 | 3.5 | 5.2 | 0.00 | 0.00 | 0.00 | 83 | 1015.8 |
| 20260507084004 | 42 | 270 | 2.6 | 4.3 | 0.00 | 0.00 | 0.00 | 83 | 1015.8 |
| 20260507083506 | 42 | 270 | 2.6 | 3.5 | 0.00 | 0.00 | 0.00 | 83 | 1015.8 |
| 20260507083009 | 42 | 270 | 2.6 | 4.3 | 0.00 | 0.00 | 0.00 | 83 | 1015.8 |
| 20260507082504 | 42 | 270 | 1.7 | 4.3 | 0.00 | 0.00 | 0.00 | 84 | 1015.8 |
| 20260507082006 | 42 | 270 | 2.6 | 4.3 | 0.00 | 0.00 | 0.00 | 84 | 1015.8 |
| 20260507081502 | 42 | 270 | 2.6 | 3.5 | 0.00 | 0.00 | 0.00 | 85 | 1015.8 |
| 20260507081004 | 42 | 270 | 2.6 | 3.5 | 0.00 | 0.00 | 0.00 | 86 | 1015.8 |
| 20260507080008 | 42 | 270 | 2.6 | 3.5 | 0.00 | 0.00 | 0.00 | 87 | 1015.8 |
| 20260507075504 | 42 | 270 | 1.7 | 3.5 | 0.00 | 0.01 | 0.00 | 87 | 1015.8 |
| 20260507074506 | 42 | 270 | 1.7 | 3.5 | 0.00 | 0.01 | 0.00 | 87 | 1015.8 |
| 20260507074002 | 42 | 270 | 1.7 | 3.5 | 0.00 | 0.01 | 0.00 | 88 | 1015.8 |
| 20260507073505 | 42 | 270 | 2.6 | 3.5 | 0.00 | 0.01 | 0.00 | 88 | 1015.8 |
| 20260507073007 | 42 | 270 | 2.6 | 3.5 | 0.00 | 0.02 | 0.00 | 88 | 1015.8 |
| 20260507072504 | 42 | 270 | 2.6 | 3.5 | 0.00 | 0.02 | 0.00 | 89 | 1015.8 |
| 20260507071502 | 42 | 247 | 1.7 | 4.3 | 0.00 | 0.04 | 0.00 | 90 | 1015.8 |
| 20260507071005 | 42 | 270 | 2.6 | 4.3 | 0.00 | 0.05 | 0.00 | 90 | 1015.8 |
| 20260507070507 | 42 | 270 | 1.7 | 3.5 | 0.00 | 0.06 | 0.00 | 91 | 1015.8 |
| 20260507070009 | 41 | 270 | 1.7 | 2.6 | 0.00 | 0.06 | 0.00 | 91 | 1015.8 |
| 20260507065507 | 41 | 270 | 1.7 | 2.6 | 0.00 | 0.06 | 0.00 | 91 | 1015.8 |
| 20260507065004 | 41 | 270 | 0.9 | 2.6 | 0.00 | 0.06 | 0.00 | 91 | 1015.8 |
| 20260507064506 | 41 | 270 | 0.9 | 2.6 | 0.00 | 0.06 | 0.00 | 92 | 1015.8 |
| 20260507064002 | 41 | 270 | 1.7 | 2.6 | 0.00 | 0.06 | 0.00 | 92 | 1015.8 |
| 20260507063505 | 41 | 270 | 1.7 | 2.6 | 0.00 | 0.06 | 0.00 | 92 | 1015.8 |
| 20260507063007 | 41 | 270 | 1.7 | 2.6 | 0.00 | 0.06 | 0.00 | 92 | 1015.8 |
| 20260507062504 | 41 | 270 | 0.9 | 1.7 | 0.00 | 0.06 | 0.00 | 92 | 1015.8 |
| 20260507062005 | 40 | 270 | 0.0 | 0.0 | 0.00 | 0.06 | 0.00 | 92 | 1016.1 |
| 20260507061507 | 40 | 270 | 0.0 | 0.0 | 0.00 | 0.06 | 0.00 | 92 | 1016.1 |
| 20260507061004 | 40 | 270 | 0.0 | 0.0 | 0.00 | 0.07 | 0.00 | 91 | 1016.1 |
| 20260507060007 | 39 | 270 | 0.0 | 0.0 | 0.00 | 0.07 | 0.00 | 90 | 1015.8 |
| 20260507055504 | 40 | 270 | 0.0 | 0.0 | 0.00 | 0.08 | 0.00 | 90 | 1016.1 |
| 20260507054506 | 40 | 270 | 0.0 | 0.0 | 0.00 | 0.10 | 0.00 | 90 | 1015.8 |
| 20260507054002 | 41 | 270 | 0.0 | 0.0 | 0.00 | 0.10 | 0.00 | 90 | 1015.8 |
| 20260507053505 | 41 | 270 | 0.0 | 0.0 | 0.00 | 0.11 | 0.00 | 90 | 1016.1 |
| 20260507053007 | 41 | 270 | 0.0 | 0.0 | 0.00 | 0.11 | 0.00 | 90 | 1016.1 |
| 20260507052504 | 41 | 270 | 0.0 | 0.0 | 0.00 | 0.12 | 0.00 | 89 | 1016.1 |
| 20260507051502 | 42 | 270 | 0.0 | 0.0 | 0.00 | 0.13 | 0.00 | 89 | 1016.1 |
| 20260507051004 | 42 | 270 | 0.0 | 0.0 | 0.00 | 0.14 | 0.00 | 89 | 1016.1 |
| 20260507045503 | 42 | 270 | 0.0 | 0.0 | 0.00 | 0.19 | 0.00 | 90 | 1016.1 |
| 20260507045005 | 42 | 270 | 0.0 | 0.0 | 0.00 | 0.21 | 0.00 | 90 | 1016.1 |
| 20260507044507 | 42 | 270 | 0.0 | 0.0 | 0.00 | 0.23 | 0.00 | 90 | 1016.1 |
| 20260507043505 | 43 | 270 | 0.0 | 0.0 | 0.00 | 0.29 | 0.00 | 90 | 1015.8 |
| 20260507043002 | 43 | 270 | 0.0 | 0.0 | 0.00 | 0.32 | 0.00 | 89 | 1015.8 |
| 20260507042504 | 43 | 270 | 0.0 | 0.0 | 0.00 | 0.33 | 0.00 | 89 | 1016.1 |
| 20260507042006 | 43 | 270 | 0.0 | 0.0 | 0.00 | 0.35 | 0.00 | 89 | 1016.1 |
| 20260507041502 | 43 | 270 | 0.0 | 0.0 | 0.00 | 0.37 | 0.00 | 88 | 1016.1 |
| 20260507041004 | 43 | 270 | 0.0 | 0.0 | 0.00 | 0.38 | 0.00 | 88 | 1015.8 |
| 20260507040505 | 43 | 270 | 0.0 | 0.0 | 0.00 | 0.39 | 0.00 | 88 | 1015.8 |
| 20260507035503 | 44 | 270 | 0.0 | 0.0 | 0.00 | 0.41 | 0.40 | 86 | 1016.1 |
| 20260507035005 | 44 | 270 | 0.0 | 0.0 | 0.00 | 0.41 | 0.40 | 86 | 1016.1 |
| 20260507034506 | 44 | 270 | 0.0 | 0.0 | 0.00 | 0.42 | 0.40 | 85 | 1015.8 |
| 20260507034003 | 44 | 270 | 0.0 | 0.0 | 0.00 | 0.44 | 0.40 | 84 | 1016.1 |
| 20260507033506 | 44 | 270 | 0.0 | 0.0 | 0.00 | 0.48 | 0.40 | 84 | 1015.8 |
| 20260507033003 | 45 | 270 | 0.0 | 0.0 | 0.00 | 0.50 | 0.40 | 83 | 1015.8 |
| 20260507032505 | 45 | 270 | 0.0 | 0.0 | 0.00 | 0.51 | 0.40 | 82 | 1015.8 |
| 20260507032008 | 45 | 270 | 0.0 | 0.0 | 0.00 | 0.52 | 0.40 | 81 | 1015.8 |
| 20260507031503 | 46 | 270 | 0.0 | 0.0 | 0.00 | 0.52 | 0.40 | 81 | 1016.1 |
| 20260507031006 | 46 | 270 | 0.0 | 0.0 | 0.00 | 0.52 | 0.40 | 81 | 1016.1 |
| 20260507030502 | 46 | 270 | 0.0 | 0.0 | 0.00 | 0.52 | 0.40 | 81 | 1016.1 |
| 20260507030004 | 47 | 270 | 0.0 | 0.0 | 0.00 | 0.52 | 0.40 | 81 | 1016.1 |
| 20260507025505 | 47 | 270 | 0.0 | 0.0 | 0.00 | 0.52 | 0.40 | 80 | 1016.1 |
| 20260507025008 | 47 | 270 | 0.0 | 0.0 | 0.00 | 0.52 | 0.40 | 80 | 1016.1 |
| 20260507024504 | 47 | 270 | 0.0 | 0.0 | 0.00 | 0.52 | 0.40 | 79 | 1016.1 |
| 20260507024007 | 47 | 270 | 0.0 | 0.0 | 0.00 | 0.52 | 0.40 | 78 | 1016.1 |
| 20260507023505 | 48 | 270 | 0.0 | 0.0 | 0.00 | 0.53 | 0.40 | 78 | 1016.1 |
| 20260507023008 | 48 | 270 | 0.0 | 0.0 | 0.00 | 0.53 | 0.40 | 77 | 1016.1 |
| 20260507022507 | 48 | 270 | 0.0 | 0.0 | 0.00 | 0.53 | 0.40 | 77 | 1016.1 |
| 20260507022004 | 48 | 270 | 0.0 | 0.0 | 0.00 | 0.54 | 0.40 | 77 | 1016.1 |
| 20260507021507 | 48 | 270 | 0.0 | 0.0 | 0.00 | 0.54 | 0.40 | 76 | 1016.1 |
| 20260507021004 | 48 | 270 | 0.0 | 0.0 | 0.00 | 0.56 | 0.40 | 76 | 1016.1 |
| 20260507020507 | 48 | 270 | 0.0 | 0.0 | 0.00 | 0.57 | 0.40 | 76 | 1015.8 |
| 20260507015502 | 47 | 270 | 0.0 | 0.0 | 0.00 | 0.59 | 0.40 | 76 | 1015.8 |
| 20260507015002 | 47 | 270 | 0.0 | 0.0 | 0.00 | 0.61 | 0.40 | 74 | 1015.8 |
| 20260507014511 | 47 | 270 | 0.0 | 0.0 | 0.00 | 0.63 | 0.40 | 72 | 1015.8 |
| 20260507013506 | 48 | 270 | 0.0 | 0.0 | 0.00 | 0.66 | 0.40 | 70 | 1015.4 |
| 20260507013009 | 48 | 270 | 0.0 | 0.0 | 0.00 | 0.66 | 0.40 | 69 | 1015.4 |
| 20260507012503 | 49 | 270 | 0.0 | 0.0 | 0.00 | 0.66 | 0.40 | 67 | 1015.4 |
| 20260507011506 | 50 | 270 | 0.0 | 0.0 | 0.00 | 0.67 | 0.40 | 66 | 1015.4 |
| 20260507010504 | 51 | 270 | 0.0 | 0.0 | 0.00 | 0.69 | 0.40 | 64 | 1015.4 |
| 20260507010006 | 52 | 270 | 0.0 | 1.7 | 0.00 | 0.70 | 0.40 | 63 | 1015.4 |
| 20260507005503 | 52 | 270 | 0.0 | 1.7 | 0.00 | 0.73 | 0.40 | 63 | 1015.4 |
| 20260507005005 | 52 | 270 | 0.0 | 1.7 | 0.00 | 0.74 | 0.40 | 62 | 1015.4 |
| 20260507004012 | 53 | 270 | 0.0 | 4.3 | 0.00 | 0.78 | 0.40 | 60 | 1015.4 |
| 20260507003504 | 53 | 292 | 1.7 | 4.3 | 0.00 | 0.79 | 0.40 | 60 | 1015.1 |
| 20260507003007 | 53 | 292 | 1.7 | 4.3 | 0.00 | 0.81 | 0.40 | 59 | 1015.1 |
| 20260507002506 | 53 | 292 | 2.6 | 4.3 | 0.00 | 0.83 | 0.40 | 59 | 1015.1 |
| 20260507002008 | 54 | 292 | 2.6 | 3.5 | 0.00 | 0.86 | 0.40 | 58 | 1015.1 |
| 20260507001505 | 54 | 315 | 0.9 | 5.2 | 0.00 | 0.89 | 0.40 | 58 | 1014.8 |
| 20260507001001 | 54 | 315 | 2.6 | 5.2 | 0.00 | 0.92 | 0.40 | 57 | 1014.8 |
| 20260507000505 | 54 | 270 | 1.7 | 5.2 | 0.00 | 0.96 | 0.40 | 57 | 1014.8 |
| 20260507000007 | 54 | 315 | 4.3 | 7.0 | 0.00 | 1.01 | 0.40 | 57 | 1014.8 |
| 20260506235507 | 54 | 315 | 2.6 | 7.0 | 0.00 | 1.10 | 0.40 | 56 | 1014.8 |
| 20260506234003 | 54 | 360 | 2.6 | 5.2 | 0.00 | 1.30 | 0.40 | 55 | 1014.8 |
| 20260506233506 | 54 | 270 | 4.3 | 5.2 | 0.00 | 1.32 | 0.40 | 55 | 1014.8 |
| 20260506232505 | 54 | 337 | 3.5 | 7.0 | 0.00 | 1.36 | 0.40 | 55 | 1014.8 |
| 20260506232001 | 55 | 292 | 3.5 | 6.1 | 0.00 | 1.37 | 0.40 | 55 | 1014.8 |
| 20260506231505 | 55 | 270 | 2.6 | 7.8 | 0.00 | 1.38 | 0.40 | 54 | 1014.8 |
| 20260506231007 | 55 | 292 | 3.5 | 7.8 | 0.00 | 1.39 | 0.40 | 53 | 1014.8 |
| 20260506230503 | 55 | 315 | 1.7 | 7.8 | 0.00 | 1.40 | 0.40 | 53 | 1014.8 |
| 20260506230006 | 55 | 270 | 5.2 | 7.8 | 0.00 | 1.41 | 0.40 | 54 | 1014.8 |
| 20260506225506 | 55 | 270 | 2.6 | 6.1 | 0.00 | 1.42 | 0.40 | 54 | 1014.8 |
| 20260506225003 | 55 | 315 | 2.6 | 4.3 | 0.00 | 1.44 | 0.40 | 53 | 1014.8 |
| 20260506224506 | 55 | 360 | 3.5 | 7.0 | 0.00 | 1.46 | 0.40 | 53 | 1014.8 |
| 20260506224003 | 56 | 292 | 4.3 | 7.0 | 0.00 | 1.49 | 0.40 | 52 | 1015.1 |
| 20260506223506 | 56 | 292 | 0.9 | 6.1 | 0.00 | 1.51 | 0.40 | 52 | 1015.1 |
| 20260506223003 | 56 | 315 | 3.5 | 7.0 | 0.00 | 1.53 | 0.40 | 52 | 1015.1 |
| 20260506222506 | 56 | 292 | 3.5 | 7.0 | 0.00 | 1.55 | 0.40 | 53 | 1015.1 |
| 20260506222003 | 56 | 292 | 4.3 | 7.0 | 0.00 | 1.57 | 0.40 | 54 | 1014.8 |
| 20260506221506 | 55 | 202 | 2.6 | 7.8 | 0.00 | 1.58 | 0.40 | 56 | 1015.1 |
| 20260506221003 | 55 | 270 | 3.5 | 7.8 | 0.00 | 1.59 | 0.40 | 56 | 1015.1 |
| 20260506220505 | 55 | 270 | 5.2 | 7.8 | 0.00 | 1.59 | 0.40 | 56 | 1015.1 |
| 20260506220002 | 55 | 247 | 6.1 | 8.7 | 0.00 | 1.59 | 0.40 | 56 | 1015.1 |
| 20260506215504 | 55 | 247 | 3.5 | 8.7 | 0.00 | 1.59 | 0.40 | 56 | 1014.8 |
| 20260506215007 | 55 | 292 | 4.3 | 6.1 | 0.00 | 1.59 | 0.40 | 57 | 1015.1 |
| 20260506214503 | 55 | 270 | 3.5 | 7.0 | 0.00 | 1.59 | 0.40 | 56 | 1014.8 |
| 20260506214006 | 55 | 292 | 2.6 | 7.0 | 0.00 | 1.59 | 0.40 | 56 | 1014.8 |
| 20260506213503 | 55 | 270 | 3.5 | 7.0 | 0.00 | 1.59 | 0.40 | 55 | 1014.8 |
| 20260506213005 | 55 | 270 | 7.0 | 9.6 | 0.00 | 1.59 | 0.40 | 54 | 1014.8 |
| 20260506212502 | 56 | 270 | 1.7 | 7.0 | 0.00 | 1.59 | 0.40 | 53 | 1014.8 |
| 20260506212005 | 55 | 315 | 4.3 | 7.0 | 0.00 | 1.59 | 0.40 | 53 | 1014.8 |
| 20260506211508 | 55 | 292 | 5.2 | 10.4 | 0.00 | 1.59 | 0.40 | 53 | 1014.8 |
| 20260506211004 | 55 | 270 | 6.1 | 10.4 | 0.00 | 1.59 | 0.40 | 53 | 1014.8 |
| 20260506210507 | 55 | 292 | 7.8 | 10.4 | 0.00 | 1.59 | 0.40 | 53 | 1014.8 |
| 20260506210004 | 55 | 270 | 5.2 | 9.6 | 0.00 | 1.59 | 0.40 | 53 | 1014.8 |
| 20260506204004 | 55 | 270 | 3.5 | 7.8 | 0.00 | 1.59 | 0.40 | 53 | 1014.8 |
| 20260506203507 | 55 | 270 | 6.1 | 7.8 | 0.00 | 1.59 | 0.40 | 54 | 1014.8 |
| 20260506203004 | 55 | 292 | 2.6 | 7.8 | 0.00 | 1.59 | 0.40 | 54 | 1014.8 |
| 20260506202506 | 55 | 270 | 4.3 | 7.8 | 0.00 | 1.59 | 0.40 | 53 | 1014.8 |
| 20260506201505 | 55 | 292 | 3.5 | 7.8 | 0.00 | 1.59 | 0.40 | 53 | 1014.8 |
| 20260506201008 | 55 | 337 | 1.7 | 7.8 | 0.00 | 1.60 | 0.40 | 53 | 1014.8 |
| 20260506200505 | 55 | 315 | 3.5 | 7.8 | 0.00 | 1.60 | 0.40 | 52 | 1014.8 |
| 20260506200007 | 55 | 292 | 3.5 | 8.7 | 0.00 | 1.60 | 0.40 | 52 | 1014.8 |
| 20260506195507 | 55 | 292 | 4.3 | 8.7 | 0.00 | 1.60 | 0.40 | 51 | 1014.8 |
| 20260506195004 | 55 | 315 | 4.3 | 8.7 | 0.00 | 1.60 | 0.40 | 51 | 1014.8 |
| 20260506194506 | 55 | 292 | 6.1 | 7.8 | 0.00 | 1.61 | 0.40 | 52 | 1014.8 |
| 20260506194003 | 55 | 337 | 5.2 | 7.0 | 0.00 | 1.61 | 0.40 | 53 | 1014.8 |
| 20260506193506 | 56 | 337 | 4.3 | 7.0 | 0.00 | 1.63 | 0.40 | 54 | 1014.4 |
| 20260506193003 | 56 | 337 | 5.2 | 7.0 | 0.00 | 1.64 | 0.40 | 55 | 1014.4 |
| 20260506192002 | 55 | 337 | 2.6 | 6.1 | 0.00 | 1.67 | 0.40 | 55 | 1014.4 |
| 20260506191505 | 55 | 292 | 3.5 | 7.8 | 0.00 | 1.70 | 0.40 | 54 | 1014.4 |
| 20260506191008 | 55 | 292 | 4.3 | 7.8 | 0.00 | 1.72 | 0.40 | 55 | 1014.8 |
| 20260506190005 | 55 | 22 | 1.7 | 8.7 | 0.00 | 1.72 | 0.40 | 55 | 1014.8 |
| 20260506185533 | 55 | 360 | 4.3 | 8.7 | 0.00 | 1.72 | 0.40 | 55 | 1014.8 |
| 20260506185009 | 55 | 315 | 3.5 | 8.7 | 0.00 | 1.72 | 0.40 | 55 | 1014.8 |
| 20260506184505 | 56 | 292 | 2.6 | 11.3 | 0.00 | 1.72 | 0.40 | 55 | 1014.8 |
| 20260506184008 | 56 | 315 | 1.7 | 11.3 | 0.00 | 1.72 | 0.40 | 55 | 1014.8 |
| 20260506183504 | 56 | 292 | 4.3 | 11.3 | 0.00 | 1.72 | 0.40 | 53 | 1014.8 |
| 20260506183006 | 57 | 292 | 5.2 | 9.6 | 0.00 | 1.72 | 0.40 | 52 | 1014.8 |
| 20260506182503 | 57 | 360 | 4.3 | 6.1 | 0.00 | 1.72 | 0.40 | 52 | 1014.8 |
| 20260506182005 | 56 | 360 | 3.5 | 6.1 | 0.00 | 1.72 | 0.40 | 53 | 1014.4 |
| 20260506181508 | 55 | 292 | 3.5 | 9.6 | 0.00 | 1.72 | 0.40 | 54 | 1014.4 |
| 20260506181004 | 56 | 315 | 4.3 | 9.6 | 0.00 | 1.72 | 0.40 | 55 | 1014.4 |
| 20260506180507 | 55 | 292 | 3.5 | 7.0 | 0.00 | 1.72 | 0.40 | 54 | 1014.4 |
| 20260506180003 | 56 | 270 | 4.3 | 8.7 | 0.00 | 1.72 | 0.40 | 55 | 1014.4 |
| 20260506175505 | 56 | 337 | 2.6 | 7.0 | 0.00 | 1.72 | 0.40 | 55 | 1014.8 |
| 20260506175007 | 55 | 22 | 2.6 | 7.0 | 0.00 | 1.72 | 0.40 | 55 | 1014.8 |
| 20260506174005 | 56 | 337 | 3.5 | 8.7 | 0.00 | 1.72 | 0.40 | 56 | 1014.8 |
| 20260506173004 | 55 | 22 | 1.7 | 5.2 | 0.00 | 1.72 | 0.40 | 56 | 1014.8 |
| 20260506172506 | 55 | 360 | 0.9 | 5.2 | 0.00 | 1.72 | 0.40 | 55 | 1014.8 |
| 20260506172003 | 55 | 270 | 1.7 | 5.2 | 0.00 | 1.72 | 0.40 | 55 | 1015.1 |
| 20260506171505 | 56 | 315 | 2.6 | 8.7 | 0.00 | 1.72 | 0.40 | 56 | 1014.8 |
| 20260506171002 | 56 | 315 | 5.2 | 8.7 | 0.00 | 1.72 | 0.40 | 56 | 1014.8 |
| 20260506170505 | 56 | 202 | 0.0 | 4.3 | 0.00 | 1.72 | 0.40 | 56 | 1014.8 |
| 20260506165507 | 56 | 360 | 3.5 | 7.0 | 0.00 | 1.72 | 0.40 | 56 | 1014.8 |
| 20260506165003 | 56 | 270 | 0.9 | 6.1 | 0.00 | 1.72 | 0.40 | 56 | 1014.8 |
| 20260506164506 | 56 | 360 | 4.3 | 7.8 | 0.00 | 1.72 | 0.40 | 56 | 1014.8 |
| 20260506164002 | 55 | 360 | 3.5 | 7.8 | 0.00 | 1.72 | 0.40 | 56 | 1014.4 |
| 20260506163505 | 55 | 337 | 3.5 | 7.8 | 0.00 | 1.72 | 0.40 | 57 | 1014.8 |
| 20260506163008 | 55 | 360 | 4.3 | 7.8 | 0.00 | 1.72 | 0.40 | 58 | 1014.8 |
| 20260506162504 | 55 | 360 | 2.6 | 7.8 | 0.00 | 1.72 | 0.40 | 59 | 1014.4 |
| 20260506162007 | 55 | 292 | 3.5 | 7.8 | 0.00 | 1.72 | 0.40 | 58 | 1014.4 |
| 20260506161502 | 55 | 360 | 3.5 | 7.0 | 0.00 | 1.72 | 0.40 | 58 | 1014.8 |
| 20260506161005 | 55 | 22 | 1.7 | 5.2 | 0.00 | 1.72 | 0.40 | 58 | 1014.8 |
| 20260506160502 | 54 | 337 | 1.7 | 5.2 | 0.00 | 1.72 | 0.40 | 59 | 1014.8 |
| 20260506160005 | 54 | 337 | 3.5 | 7.0 | 0.00 | 1.72 | 0.40 | 60 | 1015.1 |
| 20260506155508 | 54 | 337 | 4.3 | 7.0 | 0.00 | 1.72 | 0.40 | 60 | 1014.8 |
| 20260506155004 | 54 | 337 | 4.3 | 6.1 | 0.00 | 1.72 | 0.40 | 60 | 1014.8 |
| 20260506154507 | 54 | 22 | 1.7 | 9.6 | 0.00 | 1.72 | 0.40 | 60 | 1014.4 |